DL3NBY Weather Reports


time (UTC)temp
F
wind
direction
speed
knots
gust
knots
rain 1hr
in
rain 24hr
in
rain mn
in
humidity
%
barometer
mb
20260901184019 60 0.0 0.0 0.00 0.58 0.01 91 1019.3
20260901183015 60 0.0 0.0 0.00 0.59 0.01 89 1019.1
20260901182112 60 0.0 0.0 0.00 0.60 0.01 89 1019.1
20260901181109 60 0.0 0.0 0.00 0.60 0.01 90 1019.0
20260901180126 61 0.0 0.0 0.00 0.60 0.01 89 1018.9
20260901175103 63 0.0 0.0 0.00 0.60 0.01 87 1018.8
20260901174059 65 0.0 0.0 0.00 0.60 0.01 83 1018.9
20260901173058 67 0.0 0.0 0.00 0.60 0.01 79 1018.7
20260901172113 68 258 0.9 6.1 0.00 0.60 0.01 72 1018.6
20260901171050 70 0.0 1.7 0.00 0.60 0.01 72 1018.7
20260901170047 71 180 0.9 3.5 0.00 0.60 0.01 69 1018.8
20260901165105 71 185 0.9 1.7 0.00 0.60 0.01 67 1018.7
20260901164041 72 270 0.0 2.6 0.00 0.60 0.01 65 1018.7
20260901163037 72 180 0.9 4.3 0.00 0.60 0.01 63 1018.8
20260901162034 73 0.0 1.7 0.00 0.60 0.01 64 1018.9
20260901160028 73 243 1.7 7.0 0.00 0.60 0.01 62 1019.0
20260901155025 73 198 0.0 3.5 0.00 0.60 0.01 61 1018.9
20260901154042 73 180 0.0 1.7 0.00 0.60 0.01 63 1019.1
20260901153019 74 180 0.0 1.7 0.00 0.60 0.01 60 1019.0
20260901152015 74 212 0.0 3.5 0.00 0.60 0.01 57 1019.0
20260901150109 73 236 2.6 7.0 0.00 0.60 0.01 59 1018.9
20260901145106 74 215 1.7 4.3 0.00 0.60 0.01 62 1019.0
20260901144103 75 204 0.9 3.5 0.00 0.60 0.01 59 1019.1
20260901143120 75 293 0.9 6.1 0.00 0.60 0.01 58 1019.1
20260901141053 74 217 1.7 7.0 0.00 0.60 0.01 61 1019.3
20260901140050 75 249 1.7 5.2 0.00 0.60 0.01 59 1019.4
20260901135047 74 225 0.9 4.3 0.00 0.60 0.01 58 1019.3
20260901134044 74 253 1.7 4.3 0.00 0.60 0.01 61 1019.4
20260901133040 75 204 1.7 8.7 0.00 0.60 0.01 60 1019.4
20260901132037 75 187 1.7 9.6 0.00 0.60 0.01 59 1019.4
20260901130031 74 221 0.9 4.3 0.00 0.60 0.01 63 1019.6
20260901125028 73 187 1.7 5.2 0.00 0.60 0.01 64 1019.5
20260901124045 73 184 1.7 6.1 0.00 0.60 0.01 65 1019.7
20260901122019 73 210 1.7 7.0 0.00 0.60 0.01 67 1019.8
20260901121017 72 237 1.7 5.2 0.00 0.60 0.01 69 1019.8
20260901120112 72 203 0.9 4.3 0.00 0.60 0.01 69 1019.8
20260901115108 70 213 0.9 2.6 0.00 0.60 0.01 70 1019.9
20260901113102 69 225 1.7 3.5 0.00 0.60 0.01 73 1019.9
20260901111056 68 270 0.9 4.3 0.00 0.60 0.01 78 1020.0
20260901105049 70 320 1.7 7.0 0.00 0.60 0.01 74 1020.0
20260901102040 69 308 1.7 5.2 0.00 0.60 0.01 80 1020.1
20260901101037 68 196 1.7 6.1 0.00 0.60 0.01 79 1020.1
20260901095031 67 218 0.9 3.5 0.00 0.60 0.01 84 1020.2
20260901094028 66 249 1.7 7.0 0.00 0.60 0.01 83 1020.1
20260901093025 66 233 2.6 9.6 0.00 0.60 0.01 86 1020.2
20260901092041 66 312 0.9 3.5 0.00 0.60 0.01 86 1020.1
20260901091018 65 220 1.7 10.4 0.00 0.60 0.01 87 1020.1
20260901090035 65 217 1.7 5.2 0.00 0.60 0.01 88 1020.1
20260901085112 64 240 1.7 3.5 0.00 0.60 0.01 91 1020.1
20260901084109 63 196 1.7 7.0 0.00 0.60 0.01 91 1020.1
20260901083105 63 177 0.9 3.5 0.00 0.60 0.01 93 1020.2
20260901082144 62 290 0.9 4.3 0.00 0.60 0.01 94 1020.2
20260901081059 62 215 0.9 6.1 0.00 0.60 0.01 94 1020.2
20260901080056 61 289 0.9 4.3 0.00 0.60 0.01 95 1020.1
20260901074049 60 0.0 0.0 0.00 0.60 0.01 98 1019.8
20260901073046 60 0.0 0.0 0.00 0.60 0.01 99 1019.8
20260901072043 59 0.0 1.7 0.00 0.60 0.01 99 1019.8
20260901071040 59 0.0 0.0 0.00 0.60 0.01 99 1019.8
20260901070037 59 0.0 0.0 0.00 0.60 0.01 99 1019.8
20260901065034 58 0.0 0.0 0.00 0.60 0.01 99 1019.7
20260901064030 58 0.0 0.0 0.00 0.60 0.01 99 1019.8
20260901062044 57 0.0 0.0 0.00 0.60 0.01 99 1019.6
20260901061021 57 0.0 0.9 0.00 0.60 0.01 99 1019.5
20260901060018 57 180 0.9 2.6 0.00 0.60 0.01 99 1019.5
20260901055015 56 0.0 0.9 0.00 0.60 0.01 99 1019.5
20260901054112 56 0.0 0.0 0.00 0.60 0.01 99 1019.5
20260901053149 57 0.0 0.0 0.00 0.60 0.01 99 1019.4
20260901052146 57 0.0 0.0 0.00 0.60 0.01 99 1019.4
20260901051103 57 258 0.9 3.5 0.00 0.60 0.01 99 1019.3
20260901050119 56 243 0.9 5.2 0.00 0.60 0.01 99 1019.3
20260901045056 55 203 0.0 3.5 0.00 0.60 0.01 99 1019.2
20260901044053 55 0.0 0.0 0.01 0.60 0.01 99 1019.2
20260901043050 55 0.0 0.0 0.01 0.60 0.01 99 1019.1
20260901042047 56 0.0 0.0 0.01 0.60 0.01 99 1019.0
20260901040040 57 180 0.0 2.6 0.01 0.60 0.01 99 1019.0
20260901034034 56 234 0.9 4.3 0.00 0.59 0.00 99 1018.8
20260901033051 56 239 1.7 5.2 0.00 0.59 0.00 99 1018.7
20260901031024 53 0.0 0.0 0.00 0.60 0.00 99 1018.7
20260901030021 54 0.0 0.0 0.00 0.61 0.00 99 1018.6
20260901024035 52 0.0 0.0 0.00 0.65 0.00 99 1018.5
20260901023112 52 0.0 0.0 0.00 0.66 0.00 99 1018.5
20260901015100 53 0.0 0.0 0.00 0.66 0.00 99 1018.4
20260901014056 53 0.0 0.0 0.00 0.66 0.00 99 1018.2
20260901011107 54 0.0 0.0 0.00 0.66 0.00 99 1018.2
20260901005041 56 0.0 0.0 0.00 0.66 0.00 99 1018.0
20260901004120 57 0.0 0.0 0.00 0.66 0.00 99 1017.9
20260901001029 59 216 0.9 1.7 0.00 0.66 0.00 99 1017.6
20260901000025 59 225 0.9 3.5 0.00 0.66 0.00 99 1017.6
20260831234019 59 206 0.9 3.5 0.00 0.66 0.00 99 1017.7
20260831233016 59 207 2.6 7.0 0.00 0.66 0.00 99 1017.7
20260831232153 59 212 2.6 5.2 0.00 0.66 0.00 99 1017.7
20260831231110 59 230 1.7 7.0 0.00 0.66 0.00 99 1017.7
20260831230107 58 204 1.7 7.0 0.00 0.66 0.00 99 1017.6
20260831225105 58 192 2.6 5.2 0.00 0.66 0.00 99 1017.8
20260831224141 58 210 3.5 7.8 0.00 0.66 0.00 99 1017.7
20260831223057 58 203 3.5 6.1 0.00 0.66 0.00 99 1017.6
20260831222054 58 217 2.6 7.0 0.00 0.66 0.00 99 1017.6
20260831221051 58 238 1.7 4.3 0.00 0.66 0.00 99 1017.6
20260831220048 58 225 0.0 3.5 0.06 0.66 0.00 99 1017.6
20260831214034 59 195 1.7 7.0 0.13 0.66 0.66 98 1017.5
20260831213031 59 232 1.7 6.1 0.25 0.66 0.66 99 1017.5
20260831212028 59 249 1.7 5.2 0.48 0.66 0.66 99 1017.3
20260831211045 60 244 2.6 7.8 0.57 0.66 0.66 99 1017.3
20260831210021 59 236 1.7 9.6 0.51 0.60 0.60 99 1017.5
20260831205018 59 269 0.9 4.3 0.51 0.60 0.60 99 1017.3
20260831204017 59 225 0.9 3.5 0.44 0.53 0.53 99 1017.1
20260831202129 61 0.0 0.9 0.08 0.18 0.18 97 1016.9
20260831201106 61 206 0.9 3.5 0.00 0.09 0.09 95 1016.6
20260831194057 60 219 0.9 7.0 0.00 0.09 0.09 94 1016.4
20260831193053 60 225 0.9 2.6 0.01 0.09 0.09 96 1016.2
20260831192050 59 180 1.7 3.5 0.02 0.09 0.09 97 1016.1
20260831191047 60 0.0 1.7 0.02 0.09 0.09 98 1016.0
20260831190104 60 0.0 1.7 0.02 0.09 0.09 97 1015.9
20260831185040 61 203 0.0 1.7 0.02 0.09 0.09 96 1015.8